Regional Weather Roundup
Issued by NWS Wilmington, NC

Home | Current Version | Previous Version | Text Only | Print | Product List | Glossary On
Versions: 1 2 3 4 5 6 7 8 9 10 11 12 13 14 15 16 17 18 19 20 21 22 23 24 25 26 27 28 29 30 31 32 33 34 35 36 37 38 39 40 41 42 43 44 45 46 47 48 49 50
000
ASUS42 KILM 282013
RWRILM
RWRILM
REGIONAL HOURLY WEATHER ROUNDUP
NATIONAL WEATHER SERVICE WILMINGTON NC
400 PM EDT FRI AUG 28 2015

NOTE: "FAIR" INDICATES FEW OR NO CLOUDS BELOW 12,000 FEET WITH NO
SIGNIFICANT WEATHER AND/OR OBSTRUCTIONS TO VISIBILITY.

...............WFO WILMINGTON COUNTY WARNING AREA...............

......COASTAL NC AND SC COUNTIES......

CITY           SKY/WX    TMP DP  RH WIND       PRES   REMARKS
WILMINGTON     MOSUNNY   83  65  54 NE8       30.12F
N MYRTLE BEACH MOSUNNY   85  64  49 N10       30.11F
MYRTLE BEACH   MOSUNNY   86  66  51 N14       30.12F

......INLAND NC AND SC COUNTIES.......

CITY           SKY/WX    TMP DP  RH WIND       PRES   REMARKS
LUMBERTON      PTSUNNY   86  59  39 NE12      30.13F
ELIZABETHTOWN  MOSUNNY   82  62  50 CALM      30.13F
WHITEVILLE     MOSUNNY   83  62  49 NE6       30.12F
FLORENCE       PTSUNNY   84  60  44 NE9       30.12F
DARLINGTON     MOSUNNY   86  61  42 E10       30.14F

....................REST OF NORTH CAROLINA......................

.........EASTERN NC.........

CITY           SKY/WX    TMP DP  RH WIND       PRES   REMARKS
CAPE HATTERAS  MOSUNNY   80  66  62 NE12G21   30.13S
JACKSONVILLE   PTSUNNY   82  63  51 N10G17    30.13F
MOREHEAD CITY  SUNNY     82  66  58 NE16G23   30.12F
KENANSVILLE      N/A     83  58  42 E7        30.14F
NEW BERN       PTSUNNY   83  61  47 NE15      30.14F
ELIZABETH CITY MOSUNNY   81  61  50 NE10      30.15F

.........CENTRAL NC.........

CITY           SKY/WX    TMP DP  RH WIND       PRES   REMARKS
RALEIGH DURHAM PTSUNNY   86  55  34 CALM      30.15F
ROCKY MOUNT    MOSUNNY   87  55  33 N8        30.14F
ROANOKE RAPIDS NOT AVBL
FAYETTEVILLE   MOSUNNY   85  57  38 CALM      30.13F
HOFFMAN        MOSUNNY   85  56  37 E10       30.13F

.........WESTERN NC.........

CITY           SKY/WX    TMP DP  RH WIND       PRES   REMARKS
CHARLOTTE      MOSUNNY   85  55  35 SE7       30.15F
GREENSBORO     PTSUNNY   81  55  40 CALM      30.16F
HICKORY        NOT AVBL
BOONE          NOT AVBL
ASHEVILLE      NOT AVBL

.....................REST OF SOUTH CAROLINA.....................

.........EASTERN SC.........

CITY           SKY/WX    TMP DP  RH WIND       PRES   REMARKS
CHARLESTON     PTSUNNY   85  70  60 E10       30.08F
BEAUFORT MCAS  CLOUDY    86  72  62 N9        30.07F HX  92
HILTON HEAD    PTSUNNY   82  72  69 N6        30.09F

.........CENTRAL SC.........

CITY           SKY/WX    TMP DP  RH WIND       PRES   REMARKS
COLUMBIA       MOSUNNY   90  59  35 E14       30.10F
ORANGEBURG     PTSUNNY   86  65  49 NE13      30.11F
SUMTER SHAW    MOSUNNY   86  59  39 E14G20    30.10F

.........WESTERN SC.........

CITY           SKY/WX    TMP DP  RH WIND       PRES   REMARKS
GREENVILLE     NOT AVBL
ROCK HILL      SUNNY     86  55  34 SE7       30.15F
ANDERSON       MOSUNNY   82  63  52 E8        30.13F
CLEMSON        NOT AVBL
GREENWOOD      SUNNY     85  62  46 SE9       30.14F


...................COASTAL AND OFFSHORE REPORTS..................

................LOCAL PIERS AND NC RESERVE................


STATION/POSITION TIME  SKY/WX   TEMP    WIND        PRES    VSBY
                                AIR SEA DIR/SP/G
                 (UTC)          (F)     (DEG/KT/KT) (MB)    (MI)
JOHNY MRCER PIER NOT AVBL
NC RESRV MASNBRO NOT AVBL
OCEAN CREST PIER NOT AVBL
SPRINGMAID  PIER NOT AVBL


................COASTAL AND OFFSHORE BUOYS................


STATION/POSITION TIME  SKY/WX   TEMP    WIND        PRES    VSBY
                                AIR SEA DIR/SP/G
                 (UTC)          (F)     (DEG/KT/KT) (MB)    (MI)
DIMNDSHOAL 41025 1950            79 83   30/ 17/ 21 1019.5F
WVE H/P(F/S)=  5/ 8 WND WVE H/P(F/S)=  3/ 5 SWL H/P/D(F/S/D)=  3/ 90/ 8

CAPE LOOKOUT     2000            79      40/ 18/ 20 1019.6F
ONSLOW BAY 41036 NOT AVBL
ONSLOW BAY 41064 1908            80 82   50/ 17/ 21 1020.2S
ONSLOW BAY 41159 1925               82                N/A
WVE H/P(F/S)=  5/ 6 WND WVE H/P(F/S)=  5/ 6 SWL H/P/D(F/S/D)=  2/110/11

5SE WRITBC 41038 1908            81 82   60/ 14/ 17 1020.0F
MASNBO INL 41110 1919               82                N/A
WVE H/P(F/S)=  4/11 WND WVE H/P(F/S)=  3/ 5 SWL H/P/D(F/S/D)=  2/110/11

WILM HARBR 41108 1911               83                N/A
WVE H/P(F/S)=  4/ 5 WND WVE H/P(F/S)=  3/ 5

27SE WRITB 41037 1900            77 82   50/ 14/ 17   N/A
FRYING PAN 41013 1950            81 81   50/ 19/ 23 1019.3F
WVE H/P(F/S)=  5/ 6 WND WVE H/P(F/S)=  5/ 6 SWL H/P/D(F/S/D)=  2/130/ 9

SUNST NRSH 41024 1908            83      50/ 10/ 14 1019.7F
CAPRS NRSH 41029 NOT AVBL
EDISTO     41004 1950            78 85   20/ 16/ 19 1018.1F
WVE H/P(F/S)=  3/ 5 WND WVE H/P(F/S)=  3/ 5 SWL H/P/D(F/S/D)=  2/ 9



..........OFFSHORE BUOYS BEYOND 100 NM OFFSHORE...........
.....IN A TRIANGLE---HAT TO BERMUDA TO BAHAMAS TO HAT.....


STATION/POSITION TIME  SKY/WX   TEMP    WIND        PRES    VSBY
                                AIR SEA DIR/SP/G
                 (UTC)          (F)     (DEG/KT/KT) (MB)    (MI)
150E HAT   41001 2000            79 82   70/ 12/ 16 1018.8F
W BERMUDA  41048 1950            84 84  220/ 10/ 12 1018.8F
WVE H/P(F/S)=  5/11 WND WVE H/P(F/S)=  2/ 5 SWL H/P/D(F/S/D)=  5/100/11

ATLANTIC S 41049 1950            85 89   10/  6/  8 1019.7F
WVE H/P(F/S)=  5/10 SWL H/P/D(F/S/D)=  5/100/10

E BAHAMAS  41046 1950            85 86  120/ 16/ 17 1017.5S
WVE H/P(F/S)=  8/10 WND WVE H/P(F/S)=  5/ 7 SWL H/P/D(F/S/D)=  5/100/10

NE BAHAMAS 41047 1950            85 86  100/ 10/ 12 1018.4F
WVE H/P(F/S)=  5/11 WND WVE H/P(F/S)=  2/ 4 SWL H/P/D(F/S/D)=  5/120/11

120E CANVRL41010 1920            83 86  120/  6/ 10 1017.5F

END


USA.gov is the U.S. government's official web portal to all federal, state and local government web resources and services.